AirNav   Duncan Aviation - Near you to keep you flying
 
 1015 users online  

16PN Oakdale Army Heliport
Oakdale, Pennsylvania, USA

GOING TO OAKDALE?


FAA INFORMATION EFFECTIVE 30 DECEMBER 2021

Location

FAA Identifier: 16PN
Lat/Long: 40-23-18.2480N 080-09-29.2050W
40-23.304133N 080-09.486750W
40.3884022,-80.1581125
(estimated)
Elevation: 1265 ft. / 386 m (estimated)
Variation: 07W (1985)
Time zone: UTC -5 (UTC -4 during Daylight Saving Time)
Zip code: 15071

Heliport Operations

Heliport use: Private use. Permission required prior to landing
Control tower: no
ARTCC: CLEVELAND CENTER
FSS: ALTOONA FLIGHT SERVICE STATION
Attendance: UNATNDD
Wind indicator: yes
Segmented circle: no

Heliport Communications

WX ASOS at PIT (7 nm NW): PHONE 412-472-0145
WX AWOS-A at 42PN (8 nm NE): PHONE 412-442-2213
WX ASOS at AGC (11 nm E): 120.55 (412-466-8968)
WX AWOS-3PT at AFJ (16 nm S): 119.175 (724-228-3529)
WX AWOS-3 at FWQ (18 nm SE): 118.475 (724-379-5815)

Nearby radio navigation aids

VOR radial/distance  VOR name  Freq  Var
AGCr330/8.5ALLEGHENY VOR/DME110.0009W
HLGr075/20.3WHEELING VOR/DME112.2007W
EWCr183/26.3ELLWOOD CITY VOR/DME115.8008W
AIRr061/37.5BELLAIRE VOR/DME117.1007W

 
NDB name  Hdg/Dist  Freq  Var  ID
CASTLE172/39.827209WUCP ..- -.-. .--.

Heliport Services

Runway Information

Helipad H1

Dimensions: 100 x 100 ft. / 30 x 30 m
Surface: asphalt, in fair condition
Latitude: 40-23.304133N
Longitude: 080-09.486750W
Elevation: 1265.0 ft.
Traffic pattern: leftleft
Markings: none, in fair condition

Heliport Ownership and Management from official FAA records

Ownership: U.S. Army
Owner: ARMY
CMDR, HQ-C.E. KELLY SUPT FAC
OAKDALE, PA 15071-5001
Phone 412-777-1173
Manager: MIL PHONE ON HELIPAD SIDE OF FENCE; CALL 554 FOR ACCESS THRU FENCE.

Additional Remarks

SECURITY FENCE-L 49 FT N OF HELIPAD; 131 FT RADIO TWR-L 82 FT NW.
APCH/DEP FM SE TO W TO AVOID OVERFLIGHT OF MIL FAC.
FOR CD CTC PITTSBURGH APCH AT 412-472-5591

Instrument Procedures

There are no published instrument procedures at 16PN.

Some nearby airports with instrument procedures:

KPIT - Pittsburgh International Airport (7 nm NW)
KAGC - Allegheny County Airport (11 nm E)
G05 - Finleyville Airpark (11 nm SE)
KAFJ - Washington County Airport (16 nm S)
KFWQ - Rostraver Airport (18 nm SE)
 
Loc | Ops | Rwys | IFR | FBO | Links
Com | Nav | Svcs | Stats | Notes
Area around 16PN (Oakdale Army Heliport)
 
Road maps at: MapQuest Bing Google
 
Aerial photo
No photo
 
Sectional chart

 
Airport distance calculator
Flying to Oakdale Army Heliport? Find the distance to fly.

From to 16PN

Sunrise and sunset
Times for 23-Jan-2022
 Local
(UTC-5)
 Zulu
(UTC)
Morning civil twilight07:0912:09
Sunrise07:3812:38
Sunset17:2722:27
Evening civil twilight17:5622:56

Current date and time
Zulu (UTC)  23-Jan-2022 15:19:40
Local (UTC-5)  23-Jan-2022 10:19:40
 
METAR
KPIT 
8nm NW 
231451Z 19007KT 2SM -SN SCT019 BKN029 OVC038 M05/M08 A2985 RMK AO2 SLP134 P0001 60001 T10501078 58017
KAGC 
11nm E 
231453Z 22008G17KT 3SM -SN BKN037 OVC046 M04/M09 A2986 RMK AO2 SNB01E22B34 SLP132 P0000 60000 T10441094 57017
KAFJ 
17nm S 
231456Z AUTO 21007KT 9SM -SN BKN039 OVC047 M04/M08 A2989 RMK AO2 SNB28 SLP138 P0000 60000 T10391083 58020 FZRANO
KP53 
18nm SE 
231456Z AUTO 32011G19KT M11/M17 A2994 RMK AO1 SLP153 P0001 60002 T11061167 50001
TAF
KPIT 
8nm NW 
231424Z 2314/2418 23007KT 2SM -SN OVC020 FM231700 23006KT 2SM -SN OVC010 FM240200 34007KT P6SM BKN015
KAGC 
11nm E 
231418Z 2314/2412 21008KT 2SM -SN OVC035 FM231600 23006KT 2SM -SN OVC010 FM240000 34007KT P6SM BKN015
NOTAMs
Click for the latest NOTAMs
NOTAMs are issued by the DoD/FAA and will open in a separate window not controlled by AirNav.

 

 
 

Would you like to see your business listed on this page?

 If your business provides an interesting product or service to pilots, flight crews, aircraft, or users of the Oakdale Army Heliport, you should consider listing it here.  To start the listing process, click on the button below
 
Add a business
 

Other Pages about Oakdale Army Heliport

Update a link
 
Copyright © AirNav, LLC. All rights reserved. Privacy Policy  Contact